KD6VLN-14 Weather Reports


Display with metric or nautical units.
time (UTC)temp
F
wind
direction
speed
MPH
gust
MPH
rain 1hr
in
rain 24hr
in
rain mn
in
humidity
%
barometer
mb
20260502170355 83 36 5.0 13.0 0.00 0.00 0.00 33
20260502170213 83 39 7.0 12.0 0.00 0.00 0.00 33
20260502164248 82 4 3.0 10.0 0.00 0.00 0.00 31
20260502163855 82 4 3.0 10.0 0.00 0.00 0.00 31
20260502163727 83 92 6.0 11.0 0.00 0.00 0.00 32
20260502163355 83 92 6.0 11.0 0.00 0.00 0.00 32
20260502163238 83 44 7.0 11.0 0.00 0.00 0.00 33
20260502162855 83 44 7.0 11.0 0.00 0.00 0.00 33
20260502162740 83 43 5.0 9.0 0.00 0.00 0.00 33
20260502162355 83 43 5.0 9.0 0.00 0.00 0.00 33
20260502162215 83 26 2.0 6.0 0.00 0.00 0.00 34
20260502161855 83 26 2.0 6.0 0.00 0.00 0.00 34
20260502161712 81 43 1.0 7.0 0.00 0.00 0.00 33
20260502161355 81 43 1.0 7.0 0.00 0.00 0.00 33
20260502161151 80 100 3.0 7.0 0.00 0.00 0.00 34
20260502160856 80 100 3.0 7.0 0.00 0.00 0.00 34
20260502160745 80 352 1.0 11.0 0.00 0.00 0.00 33
20260502160355 80 352 1.0 11.0 0.00 0.00 0.00 33
20260502160220 79 359 4.0 12.0 0.00 0.00 0.00 33
20260502152221 76 45 7.0 13.0 0.00 0.00 0.00 33
20260502151855 76 45 7.0 13.0 0.00 0.00 0.00 33
20260502151736 76 54 6.0 13.0 0.00 0.00 0.00 33
20260502151436 76 63 5.0 13.0 0.00 0.00 0.00 34
20260502151355 76 54 6.0 13.0 0.00 0.00 0.00 33
20260502150855 76 63 5.0 13.0 0.00 0.00 0.00 34
20260502150753 75 54 8.0 13.0 0.00 0.00 0.00 34
20260502150356 75 54 8.0 13.0 0.00 0.00 0.00 34
20260502150158 75 81 5.0 14.0 0.00 0.00 0.00 34
20260502130440 64 42 3.0 10.0 0.00 0.00 0.00 34
20260502130355 64 52 2.0 8.0 0.00 0.00 0.00 34
20260502123429 62 53 3.0 10.0 0.00 0.00 0.00 34
20260502123355 63 56 4.0 10.0 0.00 0.00 0.00 34
20260502123103 63 53 2.0 10.0 0.00 0.00 0.00 34
20260502123021 63 53 2.0 10.0 0.00 0.00 0.00 34
20260502122855 62 53 3.0 10.0 0.00 0.00 0.00 34
20260502122406 63 46 3.0 11.0 0.00 0.00 0.00 34
20260502122355 63 53 2.0 10.0 0.00 0.00 0.00 34
20260502121855 63 46 3.0 11.0 0.00 0.00 0.00 34
20260502121824 63 46 5.0 11.0 0.00 0.00 0.00 34
20260502121429 63 44 6.0 11.0 0.00 0.00 0.00 34
20260502121356 63 46 5.0 11.0 0.00 0.00 0.00 34
20260502121007 63 44 5.0 9.0 0.00 0.00 0.00 34
20260502120913 63 44 5.0 9.0 0.00 0.00 0.00 34
20260502120856 63 44 6.0 11.0 0.00 0.00 0.00 34
20260502120440 63 42 5.0 9.0 0.00 0.00 0.00 33
20260502120355 63 44 5.0 9.0 0.00 0.00 0.00 34
20260502115855 63 42 5.0 9.0 0.00 0.00 0.00 33
20260502115504 63 45 5.0 8.0 0.00 0.00 0.00 32
20260502115427 63 45 5.0 8.0 0.00 0.00 0.00 32
20260502115355 63 37 4.0 8.0 0.00 0.00 0.00 33
20260502114855 63 45 5.0 8.0 0.00 0.00 0.00 32
20260502114759 63 45 5.0 8.0 0.00 0.00 0.00 33
20260502114355 63 45 5.0 8.0 0.00 0.00 0.00 33
20260502114255 63 40 5.0 9.0 0.00 0.00 0.00 33
20260502113856 62 38 6.0 9.0 0.00 0.00 0.00 32
20260502113356 62 47 0.0 0.0 0.00 0.00 0.00 31
20260502112918 62 46 0.0 6.0 0.00 0.00 0.00 31
20260502112855 62 47 0.0 0.0 0.00 0.00 0.00 31
20260502112515 61 49 2.0 6.0 0.00 0.00 0.00 28
20260502112355 62 46 0.0 6.0 0.00 0.00 0.00 31
20260502112032 61 45 0.0 6.0 0.00 0.00 0.00 26
20260502111855 61 49 2.0 6.0 0.00 0.00 0.00 28
20260502111559 61 34 0.0 0.0 0.00 0.00 0.00 28
20260502111508 61 34 0.0 0.0 0.00 0.00 0.00 28
20260502111356 61 45 0.0 6.0 0.00 0.00 0.00 26
20260502110856 61 34 0.0 0.0 0.00 0.00 0.00 28
20260502110819 61 357 0.0 0.0 0.00 0.00 0.00 28
20260502110356 61 357 0.0 0.0 0.00 0.00 0.00 28
20260502110256 62 63 0.0 0.0 0.00 0.00 0.00 29
20260502110010 63 138 0.0 0.0 0.00 0.00 0.00 33
20260502105855 62 63 0.0 0.0 0.00 0.00 0.00 29
20260502105409 62 133 0.0 0.0 0.00 0.00 0.00 33
20260502105355 63 138 0.0 0.0 0.00 0.00 0.00 33
20260502104855 62 133 0.0 0.0 0.00 0.00 0.00 33
20260502104747 62 126 0.0 4.0 0.00 0.00 0.00 33
20260502104422 62 107 0.0 4.0 0.00 0.00 0.00 33
20260502104356 62 126 0.0 4.0 0.00 0.00 0.00 33
20260502103856 62 107 0.0 4.0 0.00 0.00 0.00 33
20260502103817 62 96 0.0 4.0 0.00 0.00 0.00 32
20260502103356 62 96 0.0 4.0 0.00 0.00 0.00 32
20260502103346 61 81 0.0 4.0 0.00 0.00 0.00 31
20260502102855 61 81 0.0 4.0 0.00 0.00 0.00 31
20260502102818 61 98 0.0 1.0 0.00 0.00 0.00 31
20260502102423 61 112 0.0 0.0 0.00 0.00 0.00 33
20260502102355 61 98 0.0 1.0 0.00 0.00 0.00 31
20260502101855 61 112 0.0 0.0 0.00 0.00 0.00 33
20260502101827 61 115 0.0 0.0 0.00 0.00 0.00 34
20260502101421 62 129 0.0 4.0 0.00 0.00 0.00 34
20260502101357 61 115 0.0 0.0 0.00 0.00 0.00 34
20260502100856 62 129 0.0 4.0 0.00 0.00 0.00 34
20260502100749 62 126 0.0 4.0 0.00 0.00 0.00 34
20260502100356 62 126 0.0 4.0 0.00 0.00 0.00 34
20260502091418 63 88 0.0 0.0 0.00 0.00 0.00 29
20260502091356 63 38 0.0 0.0 0.00 0.00 0.00 28
20260502090856 63 88 0.0 0.0 0.00 0.00 0.00 29
20260502090853 63 92 0.0 0.0 0.00 0.00 0.00 29
20260502090356 63 92 0.0 0.0 0.00 0.00 0.00 29
20260502090252 63 111 0.0 0.0 0.00 0.00 0.00 31
20260502071506 64 187 1.0 4.0 0.00 0.00 0.00 33
20260502071412 64 187 1.0 4.0 0.00 0.00 0.00 33
20260502071356 64 184 2.0 5.0 0.00 0.00 0.00 32
20260502070954 64 151 0.0 0.0 0.00 0.00 0.00 32
20260502070856 64 187 1.0 4.0 0.00 0.00 0.00 33
20260502070412 65 131 0.0 4.0 0.00 0.00 0.00 32
20260502070356 64 151 0.0 0.0 0.00 0.00 0.00 32
20260502070044 65 115 0.0 4.0 0.00 0.00 0.00 32
20260502065856 65 131 0.0 4.0 0.00 0.00 0.00 32
20260502065544 65 99 0.0 3.0 0.00 0.00 0.00 31
20260502065513 65 99 0.0 3.0 0.00 0.00 0.00 31
20260502065356 65 115 0.0 4.0 0.00 0.00 0.00 32
20260502064914 65 78 0.0 4.0 0.00 0.00 0.00 28
20260502064856 65 99 0.0 3.0 0.00 0.00 0.00 31
20260502064503 65 48 0.0 5.0 0.00 0.00 0.00 27
20260502064356 65 78 0.0 4.0 0.00 0.00 0.00 28
20260502063857 65 58 1.0 5.0 0.00 0.00 0.00 29
20260502063356 65 58 3.0 5.0 0.00 0.00 0.00 29
20260502062915 65 61 0.0 3.0 0.00 0.00 0.00 28
20260502062856 65 58 3.0 5.0 0.00 0.00 0.00 29
20260502062356 65 61 0.0 3.0 0.00 0.00 0.00 28
20260502062239 65 67 0.0 4.0 0.00 0.00 0.00 30
20260502061857 65 71 0.0 4.0 0.00 0.00 0.00 29
20260502061502 65 68 0.0 3.0 0.00 0.00 0.00 29
20260502061356 65 71 0.0 4.0 0.00 0.00 0.00 29
20260502060856 65 68 0.0 3.0 0.00 0.00 0.00 29
20260502060710 65 75 1.0 3.0 0.00 0.00 0.00 26
20260502060356 65 75 1.0 3.0 0.00 0.00 0.00 26
20260502060343 65 53 0.0 2.0 0.00 0.00 0.00 26
20260502055857 65 43 0.0 0.0 0.00 0.00 0.00 27
20260502055506 65 344 0.0 0.0 0.00 0.00 0.00 28
20260502055356 65 43 0.0 0.0 0.00 0.00 0.00 27
20260502054856 65 344 0.0 0.0 0.00 0.00 0.00 28
20260502054833 66 0 0.0 0.0 0.00 0.00 0.00 26
20260502054433 66 3 0.0 2.0 0.00 0.00 0.00 27
20260502054356 66 0 0.0 0.0 0.00 0.00 0.00 26
20260502053857 66 3 0.0 2.0 0.00 0.00 0.00 27
20260502053751 66 7 0.0 2.0 0.00 0.00 0.00 27
20260502053356 66 7 0.0 2.0 0.00 0.00 0.00 27
20260502053255 66 317 0.0 0.0 0.00 0.00 0.00 29
20260502052920 65 79 0.0 0.0 0.00 0.00 0.00 27
20260502052856 66 317 0.0 0.0 0.00 0.00 0.00 29
20260502052357 64 90 0.0 0.0 0.00 0.00 0.00 26
20260502051856 64 90 0.0 0.0 0.00 0.00 0.00 26
20260502051846 65 90 0.0 0.0 0.00 0.00 0.00 27
20260502051356 65 90 0.0 0.0 0.00 0.00 0.00 27
20260502051257 65 90 0.0 0.0 0.00 0.00 0.00 27
20260502050856 65 90 0.0 0.0 0.00 0.00 0.00 27
20260502050829 65 90 0.0 0.0 0.00 0.00 0.00 26
20260502050356 65 90 0.0 0.0 0.00 0.00 0.00 26
20260502050248 66 90 0.0 0.0 0.00 0.00 0.00 27
20260502045856 66 90 0.0 0.0 0.00 0.00 0.00 27
20260502045752 66 90 0.0 0.0 0.00 0.00 0.00 27
20260502045402 67 90 0.0 2.0 0.00 0.00 0.00 26
20260502045356 66 90 0.0 0.0 0.00 0.00 0.00 27
20260502044856 67 90 0.0 2.0 0.00 0.00 0.00 26
20260502044818 67 63 0.0 2.0 0.00 0.00 0.00 26
20260502044356 67 63 0.0 2.0 0.00 0.00 0.00 26
20260502044313 68 294 0.0 1.0 0.00 0.00 0.00 28
20260502043856 68 294 0.0 1.0 0.00 0.00 0.00 28
20260502043723 68 284 0.0 1.0 0.00 0.00 0.00 28
20260502043440 69 283 0.0 2.0 0.00 0.00 0.00 28
20260502043356 68 284 0.0 1.0 0.00 0.00 0.00 28
20260502043035 69 268 0.0 2.0 0.00 0.00 0.00 27
20260502042856 69 283 0.0 2.0 0.00 0.00 0.00 28
20260502042357 69 266 0.0 0.0 0.00 0.00 0.00 28
20260502041944 69 248 0.0 3.0 0.00 0.00 0.00 29
20260502041856 69 266 0.0 0.0 0.00 0.00 0.00 28
20260502041404 69 249 2.0 3.0 0.00 0.00 0.00 29
20260502041356 69 248 0.0 3.0 0.00 0.00 0.00 29
20260502040856 69 249 2.0 3.0 0.00 0.00 0.00 29
20260502040737 69 254 0.0 3.0 0.00 0.00 0.00 28
20260502040356 69 254 0.0 3.0 0.00 0.00 0.00 28
20260502040252 70 228 0.0 0.0 0.00 0.00 0.00 27
20260502035859 70 230 0.0 0.0 0.00 0.00 0.00 28
20260502035856 70 228 0.0 0.0 0.00 0.00 0.00 27
20260502035356 70 230 0.0 0.0 0.00 0.00 0.00 28
20260502035320 70 270 0.0 0.0 0.00 0.00 0.00 26
20260502034856 70 270 0.0 0.0 0.00 0.00 0.00 26
20260502034734 70 270 0.0 0.0 0.00 0.00 0.00 26
20260502034402 70 286 0.0 0.0 0.00 0.00 0.00 26
20260502034356 70 270 0.0 0.0 0.00 0.00 0.00 26
20260502033856 70 286 0.0 0.0 0.00 0.00 0.00 26
20260502033812 70 268 0.0 0.0 0.00 0.00 0.00 28
20260502033356 70 268 0.0 0.0 0.00 0.00 0.00 28
20260502033345 70 225 0.0 0.0 0.00 0.00 0.00 26
20260502032856 70 225 0.0 0.0 0.00 0.00 0.00 26
20260502032848 70 225 0.0 0.0 0.00 0.00 0.00 26
20260502032609 70 226 0.0 0.0 0.00 0.00 0.00 26
20260502032356 70 225 0.0 0.0 0.00 0.00 0.00 26
20260502031856 70 226 0.0 0.0 0.00 0.00 0.00 26
20260502031835 70 241 0.0 0.0 0.00 0.00 0.00 27
20260502031642 71 269 0.0 0.0 0.00 0.00 0.00 26
20260502031356 70 241 0.0 0.0 0.00 0.00 0.00 27
20260502030856 71 269 0.0 0.0 0.00 0.00 0.00 26
20260502030450 71 283 0.0 1.0 0.00 0.00 0.00 26
20260502025856 71 283 0.0 1.0 0.00 0.00 0.00 26
20260502025817 71 300 0.0 1.0 0.00 0.00 0.00 25
20260502025446 71 292 0.0 1.0 0.00 0.00 0.00 26
20260502025358 71 300 0.0 1.0 0.00 0.00 0.00 25
20260502024857 71 292 0.0 1.0 0.00 0.00 0.00 26
20260502024750 72 289 0.0 1.0 0.00 0.00 0.00 26
20260502024356 72 289 0.0 1.0 0.00 0.00 0.00 26
20260502024332 72 298 0.0 1.0 0.00 0.00 0.00 25
20260502023856 72 298 0.0 1.0 0.00 0.00 0.00 25
20260502023728 72 298 0.0 1.0 0.00 0.00 0.00 25
20260502023357 72 298 0.0 1.0 0.00 0.00 0.00 25
20260502023249 72 321 0.0 1.0 0.00 0.00 0.00 25
20260502022857 72 322 0.0 1.0 0.00 0.00 0.00 25
20260502022356 72 322 0.0 1.0 0.00 0.00 0.00 25
20260502022006 74 307 0.0 3.0 0.00 0.00 0.00 24
20260502021357 74 307 0.0 3.0 0.00 0.00 0.00 24
20260502021312 74 311 0.0 3.0 0.00 0.00 0.00 24
20260502020856 74 311 0.0 3.0 0.00 0.00 0.00 24
20260502020403 76 319 1.0 5.0 0.00 0.00 0.00 24
20260502015856 76 319 1.0 5.0 0.00 0.00 0.00 24
20260502015834 77 320 2.0 5.0 0.00 0.00 0.00 24
20260502015553 78 319 2.0 4.0 0.00 0.00 0.00 24
20260502015356 77 320 2.0 5.0 0.00 0.00 0.00 24
20260502014858 78 319 2.0 4.0 0.00 0.00 0.00 24
20260502014715 79 317 1.0 5.0 0.00 0.00 0.00 24
20260502014356 79 317 1.0 5.0 0.00 0.00 0.00 24
20260502014231 80 324 2.0 7.0 0.00 0.00 0.00 24
20260502013856 80 324 2.0 7.0 0.00 0.00 0.00 24
20260502013748 81 314 3.0 8.0 0.00 0.00 0.00 25
20260502013411 82 300 3.0 8.0 0.00 0.00 0.00 26
20260502013359 81 314 3.0 8.0 0.00 0.00 0.00 25
20260502012856 83 281 4.0 8.0 0.00 0.00 0.00 28
20260502012536 83 301 3.0 6.0 0.00 0.00 0.00 26
20260502012356 83 281 4.0 8.0 0.00 0.00 0.00 28
20260502012004 83 322 3.0 6.0 0.00 0.00 0.00 26
20260502011856 83 301 3.0 6.0 0.00 0.00 0.00 26
20260502011523 83 346 2.0 10.0 0.00 0.00 0.00 26
20260502011356 83 322 3.0 6.0 0.00 0.00 0.00 26
20260502010856 83 346 2.0 10.0 0.00 0.00 0.00 26
20260502010819 83 274 5.0 11.0 0.00 0.00 0.00 31
20260502010414 84 266 7.0 11.0 0.00 0.00 0.00 32
20260502010356 83 274 5.0 11.0 0.00 0.00 0.00 31
20260502005924 85 297 5.0 9.0 0.00 0.00 0.00 29
20260502005856 84 266 7.0 11.0 0.00 0.00 0.00 32
20260502005454 85 355 3.0 7.0 0.00 0.00 0.00 29
20260502005356 85 297 5.0 9.0 0.00 0.00 0.00 29
20260502004856 85 355 3.0 7.0 0.00 0.00 0.00 29
20260502004820 85 255 4.0 9.0 0.00 0.00 0.00 32
20260502004356 85 255 4.0 9.0 0.00 0.00 0.00 32
20260502004321 85 301 4.0 10.0 0.00 0.00 0.00 30
20260502003856 85 301 4.0 10.0 0.00 0.00 0.00 30
20260502003730 85 272 6.0 10.0 0.00 0.00 0.00 31
20260502003438 86 302 5.0 9.0 0.00 0.00 0.00 29
20260502003356 85 272 6.0 10.0 0.00 0.00 0.00 31
20260502002856 86 302 5.0 9.0 0.00 0.00 0.00 29
20260502002702 86 302 5.0 11.0 0.00 0.00 0.00 29
20260502002457 86 307 4.0 11.0 0.00 0.00 0.00 30
20260502002356 86 302 5.0 11.0 0.00 0.00 0.00 29
20260502001856 86 307 4.0 11.0 0.00 0.00 0.00 30
20260502001821 87 278 6.0 11.0 0.00 0.00 0.00 31
20260502001359 87 325 3.0 11.0 0.00 0.00 0.00 28
20260502001356 87 278 6.0 11.0 0.00 0.00 0.00 31
20260502000856 87 325 3.0 11.0 0.00 0.00 0.00 28
20260502000748 87 270 5.0 11.0 0.00 0.00 0.00 32
20260502000356 87 270 5.0 11.0 0.00 0.00 0.00 32
20260502000322 87 279 4.0 10.0 0.00 0.00 0.00 30
20260501235918 87 278 5.0 10.0 0.00 0.00 0.00 31
20260501235856 87 279 4.0 10.0 0.00 0.00 0.00 30
20260501235356 87 278 5.0 10.0 0.00 0.00 0.00 31
20260501234833 87 270 4.0 10.0 0.00 0.00 0.00 32
20260501234356 87 270 4.0 10.0 0.00 0.00 0.00 32
20260501234247 87 276 6.0 10.0 0.00 0.00 0.00 32
20260501233856 87 276 6.0 10.0 0.00 0.00 0.00 32
20260501233750 87 306 5.0 12.0 0.00 0.00 0.00 32
20260501233400 88 283 4.0 12.0 0.00 0.00 0.00 32
20260501233356 87 306 5.0 12.0 0.00 0.00 0.00 32
20260501232856 88 283 4.0 12.0 0.00 0.00 0.00 32
20260501232747 88 269 6.0 11.0 0.00 0.00 0.00 33
20260501232412 89 284 5.0 11.0 0.00 0.00 0.00 32
20260501232356 88 269 6.0 11.0 0.00 0.00 0.00 33
20260501231856 89 284 5.0 11.0 0.00 0.00 0.00 32
20260501231734 88 304 4.0 11.0 0.00 0.00 0.00 32
20260501231359 88 303 5.0 10.0 0.00 0.00 0.00 32
20260501231356 88 304 4.0 11.0 0.00 0.00 0.00 32
20260501230856 88 303 5.0 10.0 0.00 0.00 0.00 32
20260501230712 89 280 5.0 9.0 0.00 0.00 0.00 33
20260501230415 89 260 4.0 9.0 0.00 0.00 0.00 33
20260501230356 89 280 5.0 9.0 0.00 0.00 0.00 33
20260501225856 89 260 4.0 9.0 0.00 0.00 0.00 33
20260501225356 88 278 4.0 12.0 0.00 0.00 0.00 33
20260501224857 89 255 7.0 12.0 0.00 0.00 0.00 34
20260501224602 90 268 5.0 12.0 0.00 0.00 0.00 33
20260501224356 90 268 5.0 12.0 0.00 0.00 0.00 33
20260501223856 90 285 4.0 14.0 0.00 0.00 0.00 33
20260501223356 90 243 6.0 14.0 0.00 0.00 0.00 34
20260501222856 90 265 4.0 8.0 0.00 0.00 0.00 33
20260501222356 89 7 2.0 7.0 0.00 0.00 0.00 31
20260501222026 89 314 4.0 7.0 0.00 0.00 0.00 33
20260501221856 89 314 4.0 7.0 0.00 0.00 0.00 33
20260501221356 89 298 3.0 8.0 0.00 0.00 0.00 33
20260501221221 87 10 3.0 12.0 0.00 0.00 0.00 31
20260501220857 87 10 3.0 12.0 0.00 0.00 0.00 31
20260501220356 87 310 4.0 12.0 0.00 0.00 0.00 33
20260501215856 88 268 5.0 11.0 0.00 0.00 0.00 33
20260501215356 88 282 5.0 11.0 0.00 0.00 0.00 33
20260501214857 88 247 5.0 13.0 0.00 0.00 0.00 33
20260501214356 87 260 5.0 13.0 0.00 0.00 0.00 33
20260501213857 86 184 3.0 13.0 0.00 0.00 0.00 33
20260501213356 86 230 7.0 13.0 0.00 0.00 0.00 34
20260501212856 87 252 7.0 11.0 0.00 0.00 0.00 34
20260501212356 87 254 7.0 11.0 0.00 0.00 0.00 34
20260501211856 86 16 4.0 11.0 0.00 0.00 0.00 32
20260501211757 87 303 5.0 11.0 0.00 0.00 0.00 33
20260501211427 87 316 4.0 7.0 0.00 0.00 0.00 33
20260501211356 87 303 5.0 11.0 0.00 0.00 0.00 33
20260501210856 87 316 4.0 7.0 0.00 0.00 0.00 33
20260501210802 87 325 3.0 7.0 0.00 0.00 0.00 33
20260501210510 87 257 4.0 8.0 0.00 0.00 0.00 34
20260501210356 87 325 3.0 7.0 0.00 0.00 0.00 33
20260501205856 87 257 4.0 8.0 0.00 0.00 0.00 34
20260501205846 86 255 4.0 11.0 0.00 0.00 0.00 34
20260501205356 86 255 4.0 11.0 0.00 0.00 0.00 34
20260501205336 86 273 5.0 12.0 0.00 0.00 0.00 34
20260501204856 86 273 5.0 12.0 0.00 0.00 0.00 34
20260501204717 85 276 4.0 12.0 0.00 0.00 0.00 34
20260501204356 85 276 4.0 12.0 0.00 0.00 0.00 34
20260501203856 86 263 6.0 11.0 0.00 0.00 0.00 34
20260501203747 86 18 4.0 6.0 0.00 0.00 0.00 33
20260501203423 85 4 3.0 8.0 0.00 0.00 0.00 33
20260501203356 86 18 4.0 6.0 0.00 0.00 0.00 33
20260501202856 85 4 3.0 8.0 0.00 0.00 0.00 33
20260501202813 85 314 4.0 9.0 0.00 0.00 0.00 33
20260501202357 85 307 5.0 9.0 0.00 0.00 0.00 34
20260501201858 84 352 2.0 11.0 0.00 0.00 0.00 33
20260501201358 84 239 5.0 11.0 0.00 0.00 0.00 34
20260501201356 84 352 2.0 11.0 0.00 0.00 0.00 33
20260501200856 84 239 5.0 11.0 0.00 0.00 0.00 34
20260501200821 84 316 3.0 9.0 0.00 0.00 0.00 33
20260501200356 84 267 5.0 9.0 0.00 0.00 0.00 34
20260501195858 84 267 5.0 9.0 0.00 0.00 0.00 34
20260501195856 84 273 5.0 9.0 0.00 0.00 0.00 34
20260501195357 84 273 5.0 9.0 0.00 0.00 0.00 34
20260501195334 83 347 3.0 7.0 0.00 0.00 0.00 33
20260501194856 83 347 3.0 7.0 0.00 0.00 0.00 33
20260501194813 83 264 3.0 11.0 0.00 0.00 0.00 34
20260501194356 83 264 3.0 11.0 0.00 0.00 0.00 34
20260501194225 83 270 5.0 11.0 0.00 0.00 0.00 34
20260501193856 83 270 5.0 11.0 0.00 0.00 0.00 34
20260501193747 83 262 5.0 11.0 0.00 0.00 0.00 34
20260501193357 83 262 5.0 11.0 0.00 0.00 0.00 34
20260501193353 83 348 4.0 9.0 0.00 0.00 0.00 33
20260501192856 83 348 4.0 9.0 0.00 0.00 0.00 33
20260501192821 83 298 5.0 11.0 0.00 0.00 0.00 34
20260501192409 83 306 5.0 11.0 0.00 0.00 0.00 34
20260501192356 83 298 5.0 11.0 0.00 0.00 0.00 34
20260501191856 83 306 5.0 11.0 0.00 0.00 0.00 34
20260501191821 83 308 3.0 6.0 0.00 0.00 0.00 34
20260501191446 82 267 3.0 9.0 0.00 0.00 0.00 34
20260501191356 83 308 3.0 6.0 0.00 0.00 0.00 34
20260501190856 82 267 3.0 9.0 0.00 0.00 0.00 34
20260501190817 83 247 6.0 9.0 0.00 0.00 0.00 34
20260501190357 83 247 6.0 9.0 0.00 0.00 0.00 34
20260501190338 83 277 5.0 9.0 0.00 0.00 0.00 34
20260501185929 83 313 3.0 9.0 0.00 0.00 0.00 34
20260501185856 83 277 5.0 9.0 0.00 0.00 0.00 34
20260501185511 83 349 3.0 9.0 0.00 0.00 0.00 33
20260501185356 83 313 3.0 9.0 0.00 0.00 0.00 34
20260501184857 83 304 3.0 8.0 0.00 0.00 0.00 34
20260501184500 82 311 3.0 10.0 0.00 0.00 0.00 33
20260501184356 83 304 3.0 8.0 0.00 0.00 0.00 34
20260501183856 82 311 3.0 10.0 0.00 0.00 0.00 33
20260501183850 81 280 4.0 10.0 0.00 0.00 0.00 34
20260501183356 81 280 4.0 10.0 0.00 0.00 0.00 34
20260501183309 81 45 3.0 8.0 0.00 0.00 0.00 33
20260501182856 81 45 3.0 8.0 0.00 0.00 0.00 33
20260501182411 81 280 4.0 8.0 0.00 0.00 0.00 34
20260501181857 81 252 4.0 10.0 0.00 0.00 0.00 34
20260501181357 81 270 5.0 10.0 0.00 0.00 0.00 34
20260501180856 81 270 5.0 10.0 0.00 0.00 0.00 34
20260501180748 81 301 4.0 10.0 0.00 0.00 0.00 34
20260501180357 81 301 4.0 10.0 0.00 0.00 0.00 34
20260501180349 81 271 5.0 10.0 0.00 0.00 0.00 34